sat.trackr.live / text

‹ back to catalog

STARLINK-5357

NORAD 57141 · 2023-090AS

PAYLOAD ACTIVE UNKNOWN

§ Identity

Operator
Country
US
Launch date
2023-06-23
Launch site
AFETR
Launch vehicle
Mass (kg)
RCS (m²)

Purposes: comms

External: N2YO · Heavens-Above · Gunter

§ Orbital elements

Epoch: 2026-05-25T04:06:26.771616Z

Period
94.27 min
Inclination
43.0000°
Eccentricity
0.0001380
Mean motion
15.27580934 rev/d
Perigee alt
482.1 km
Apogee alt
484.0 km
Semi-major
6,861.2 km
B*
5.4507e-5
RAAN
191.1275°
Arg perigee
298.0556°
Mean anomaly
62.0156°
Rev number
16,205

§ Raw data

STARLINK-53571 57141U 23090AS  26145.17114319  .00001238  00000+0  54507-4 0  99952 57141  43.0000 191.1275 0001380 298.0556  62.0156 15.27580934162058

JSON: /api/v1/satellites/57141 · /tle

For live sub-satellite position, see the globe view (requires WebGL).

§ Visibility from observer

Set your observer location to see the next 7 days of passes ≥ 10°. The values pass through the URL so the page stays shareable.

No JS? Fill the form by hand. The geolocation button needs JavaScript.